User: anonymous   Login
Location: Caribou
(46.8667°N, 68.0167°W)
Time: 19:39:28
(UTC-04:00)
Language:

SL-08 RB Rocket - Orbit

View from above orbital plane
View from above orbital plane
View from above satellite
View from above satellite

Ground track
Ground track

The orbit data is extracted from the following two-line orbital elements,

1 26387U 00033D   14302.77555854  .00000890  00000-0  16491-3 0  6503
2 26387 098.0926 008.9417 0027909 145.7512 324.8519 14.67466857766828
Epoch (UTC): 29 October 2014 18:36:48
Eccentricity: 0.0027909
inclination: 98.0926°
perigee height: 649 km
apogee height: 689 km
right ascension of ascending node: 8.9417°
argument of perigee: 145.7512°
revolutions per day: 14.67466857
mean anomaly at epoch: 324.8519°
orbit number at epoch: 76682

The dashed part of the orbit path shows where the satellite is in the earth's shadow,  

DLR